Terug naar catalogus

UMBRA-11

ActiefWetenschapSSO
NORAD 66748·PAYLOAD·🇺🇸 United States

Gelanceerd Nov 28, 2025 vanaf Vandenberg Space Force Base

Loading…

Volgende Passages (komende 24 uur)

TLE

VersSource: Space-Track

Epoch: Sep 14, 2026, 14:58 UTC

1 66748U 25276CL  26257.62364230  .00018843  00000-0  64987-3 0  9992
2 66748  97.4125 331.8809 0002125  48.6519 311.4904 15.30033901 44157

Volg UMBRA-11 in realtime met AllMySat

Download on the App Store